Lexington Weather

Lexington, Massachusetts, USA

44°F
9/20/2020 11:06pm 
  • Lexington Conditions: Clear
  • Temperature: 43.9°F / 6.6°CColder 0.5°F than last hour.
  • Dew Point: 38.1°FIncreased 0.2°Fsince last hour.
  • Relative Humidity: 80%Increased 2.0% since last hour.
  • Wind: Calm, 10-min avg: Calm, gust: None
  • Barometer: 30.53 in Steady
  • Visibility: 10 miles
  • Rain Today: 0.00 in
  •   
Southeast Middlesex County - Special Weather Statement - Special Weather Statement
 - SEE ALL NEARBY ALERTS -

Regional Weather Roundup
for Boston / Norton, MA

        
000
ASUS41 KBOX 171504
RWRBOX

REGIONAL WEATHER ROUNDUP
NATIONAL WEATHER SERVICE BOSTON/NORTON MA
1100 AM EDT THU SEP 17 2020

NOTE:  "FAIR" INDICATES FEW OR NO CLOUDS BELOW 12,000 FEET WITH NO 
SIGNIFICANT WEATHER AND/OR OBSTRUCTIONS TO VISIBILITY.

MAZALL-171600-
EASTERN MASSACHUSETTS
  
CITY           SKY/WX    TMP DP  RH WIND       PRES   REMARKS
BOSTON         PTSUNNY   71  54  54 W12       30.03S                  
BEVERLY        MOSUNNY   70  55  59 W8        30.02S                  
LAWRENCE       MOSUNNY   68  57  68 W8        30.04F                  
BEDFORD        MOSUNNY   70  56  61 SW8       30.02F                  
BLUE HILL        N/A     68  55  63 SW13G23   30.03F                  
NORWOOD        MOSUNNY   72  56  57 SW13G20   30.03F                  
MARSHFIELD     MOSUNNY   73  59  60 SW9       30.03F                  
PLYMOUTH       MOSUNNY   73  58  59 SW17G24   30.04F                  
TAUNTON        MOSUNNY   74  58  57 W9G21     30.04F                  
NEW BEDFORD    MOSUNNY   75  60  59 SW9G17    30.05F                  
$$

MAZALL-171600-
CAPE COD AND THE ISLANDS
  
CITY           SKY/WX    TMP DP  RH WIND       PRES   REMARKS
FALMOUTH       PTSUNNY   73  63  68 W14       30.06F                  
HYANNIS        PTSUNNY   72  63  73 SW10      30.05F                  
CHATHAM        MOSUNNY   74  64  71 SW6       30.07F                  
PROVINCETOWN     N/A    N/A N/A N/A MISG        N/A                   
NANTUCKET      MOSUNNY   73  65  75 S10       30.07F                  
MARTHAS VNYRD  LGT RAIN  71  65  81 W5        30.06F                  
$$
 
MAZALL-171600-
CENTRAL AND WESTERN MASSACHUSETTS
  
CITY           SKY/WX    TMP DP  RH WIND       PRES   REMARKS
WORCESTER      MOSUNNY   66  54  65 W10       30.05F                  
FITCHBURG      MOSUNNY   70  53  54 W9        30.04S                  
ORANGE         MOSUNNY   66  56  70 S5        30.05S                  
SPRINGFIELD    PTSUNNY   68  55  64 S3        30.03F                  
WESTFIELD      MOSUNNY   67  57  70 VRB3      30.03F                  
NORTH ADAMS    CLOUDY    66  55  67 VRB3      30.04F                  
PITTSFIELD     MOSUNNY   64  54  69 SW6       30.05S                  
$$
 
RIZALL-171600-
RHODE ISLAND
  
CITY           SKY/WX    TMP DP  RH WIND       PRES   REMARKS
PROVIDENCE     PTSUNNY   73  57  57 SW12      30.05F                  
NEWPORT        MOSUNNY   73  59  61 VRB6      30.06F                  
BLOCK ISLAND   PTSUNNY   70  63  78 SW7       30.07F                  
SMITHFIELD     MOSUNNY   69  57  65 W12       30.05F                  
WESTERLY       PTSUNNY   70  57  63 SW6       30.06F                  
$$
 
CTZALL-171600-
CONNECTICUT
  
CITY           SKY/WX    TMP DP  RH WIND       PRES   REMARKS
BRADLEY INTL   PTSUNNY   70  55  59 W8        30.03F                  
HARTFORD       PTSUNNY   71  56  58 SW7       30.03F                  
BRIDGEPORT     PTSUNNY   71  61  70 SW8       30.05F                  
DANBURY        PTSUNNY   67  58  72 SW9       30.06F                  
GROTON         PTSUNNY   71  60  68 VRB7      30.05F                  
NEW HAVEN      CLOUDY    72  63  73 SW10      30.05F                  
CHESTER        NOT AVBL                                               
MERIDEN        PTSUNNY   69  55  60 SW8       30.05F                  
WILLIMANTIC    MOSUNNY   70  55  59 W8        30.04F                  
OXFORD         PTSUNNY   66  58  75 W5        30.08S                  
$$

MEZ002-015-021-024-NHZ003-005-008-011-012-014-VTZ005-008-171600-
NORTHERN NEW ENGLAND
  
CITY           SKY/WX    TMP DP  RH WIND       PRES   REMARKS
PORTLAND ME    PTSUNNY   69  54  58 CALM      29.99S                  
BANGOR ME      MOSUNNY   68  54  60 VRB5      29.98S                  
CONCORD NH     MOSUNNY   67  53  61 NW3       30.02S                  
MANCHESTER NH  PTSUNNY   70  54  56 SW7       30.00F                  
NASHUA NH      MOSUNNY   70  57  63 W3        30.03S                  
PORTSMOUTH NH  PTSUNNY   69  55  59 SW9       30.00S                  
JAFFREY NH     MOSUNNY   65  53  65 S7        30.05S                  
KEENE NH       MOSUNNY   65  54  67 SW5       30.04F                  
BURLINGTON VT  CLOUDY    60  52  74 CALM      30.06R                  
MT. WASHINGTON FOG       43  43 100 W30G41      N/A  VSB 0            
$$

NYZ052-076-171600-
EASTERN NEW YORK
  
CITY           SKY/WX    TMP DP  RH WIND       PRES   REMARKS
ALBANY         PTSUNNY   62  56  80 CALM      30.05S                  
NEW YORK CITY  CLOUDY    73  58  59 SW6       30.04F                  
$$
 
ANZALL-171600-
MARINE OBSERVATIONS
  
STATION/POSITION TIME  TEMP    WIND        PRES    VSBY  WAVE
                       AIR SEA DIR/SP/G                  HT/PER
                 (UTC) (F)     (DEG/KT/KT) (MB)    (MI)  (FT/S)
BOSTON BUOY      1450   65 64  230/  8/ 10 1015.7F         3/11
BUZZARDS BAY     1400          260/  8/  9 1019.4R
NANTUCKET SOUND  1450      70  190/ 10/ 12   N/A           1/12
MASS BAY-STELLWA 1404   63     260/ 12/ 16 1014.6R  1 7/8  2/ 4
ISLE OF SHOALS   1400   61     240/ 12/ 12 1015.9R
S OF BLOCK IS    1426      70                N/A           4/12
$$

......................KEY.........................
  SKY/WX - SKY CONDITION/PRESENT WEATHER
  TMP    - TEMPERATURE IN FAHRENHEIT
  DWPT   - DEWPOINT IN FAHRENHEIT
  RH     - RELATIVE HUMIDITY IN PERCENT
  WIND   - DIRECTION AND SPEED IN MPH
  PRES   - MEAN SEA LEVEL PRESSURE IN INCHES OF HG
  WCI    - WIND CHILL INDEX
  VSB    - VISIBILITY IN MILES
  HX     - HEAT INDEX
  TC     - TEMPERATURE IN CELSIUS
  VRB    - VARIABLE WIND DIRECTION
  N/A    - NOT AVAILABLE
  
      

Other recent Regional Weather Roundups

Sun Sep 20, 11:05pm

Sun Sep 20, 10:04pm

Sun Sep 20, 9:04pm

Sun Sep 20, 8:05pm

Sun Sep 20, 7:04pm

Sun Sep 20, 6:04pm

Sun Sep 20, 5:04pm

Sun Sep 20, 4:04pm

Sun Sep 20, 3:05pm

Sun Sep 20, 2:05pm

Sun Sep 20, 1:04pm

Sun Sep 20, 12:04pm

Sun Sep 20, 11:04am

Sun Sep 20, 10:04am

Sun Sep 20, 9:04am

Sun Sep 20, 8:04am

Sun Sep 20, 7:04am

Sun Sep 20, 6:04am

Sun Sep 20, 5:04am

Sun Sep 20, 4:04am

Sun Sep 20, 3:05am

Sun Sep 20, 2:04am

Sun Sep 20, 1:04am

Sun Sep 20, 12:04am

Sat Sep 19, 11:04pm

Sat Sep 19, 10:04pm

Sat Sep 19, 9:04pm

Sat Sep 19, 8:05pm

Sat Sep 19, 7:04pm

Sat Sep 19, 6:05pm

Sat Sep 19, 5:04pm

Sat Sep 19, 4:04pm

Sat Sep 19, 3:04pm

Sat Sep 19, 2:04pm

Sat Sep 19, 1:05pm

Sat Sep 19, 12:04pm

Sat Sep 19, 11:04am

Sat Sep 19, 10:04am

Sat Sep 19, 9:05am

Sat Sep 19, 8:04am

Sat Sep 19, 7:04am

Sat Sep 19, 6:04am

Sat Sep 19, 5:04am

Sat Sep 19, 4:04am

Sat Sep 19, 3:04am

Sat Sep 19, 2:04am

Sat Sep 19, 1:04am

Sat Sep 19, 12:04am

Fri Sep 18, 11:05pm

Fri Sep 18, 10:04pm

Fri Sep 18, 9:04pm

Fri Sep 18, 8:04pm

Fri Sep 18, 7:04pm

Fri Sep 18, 6:04pm

Fri Sep 18, 5:05pm

Fri Sep 18, 4:04pm

Fri Sep 18, 3:05pm

Fri Sep 18, 2:04pm

Fri Sep 18, 1:04pm

Fri Sep 18, 12:04pm

Fri Sep 18, 11:05am

Fri Sep 18, 10:05am

Fri Sep 18, 9:04am

Fri Sep 18, 8:04am

Fri Sep 18, 7:04am

Fri Sep 18, 6:04am

Fri Sep 18, 5:04am

Fri Sep 18, 4:04am

Fri Sep 18, 3:04am

Fri Sep 18, 2:04am

Fri Sep 18, 1:04am

Fri Sep 18, 12:04am

Thu Sep 17, 11:05pm

Thu Sep 17, 10:04pm

Thu Sep 17, 9:04pm

Thu Sep 17, 8:05pm

Thu Sep 17, 7:04pm

Thu Sep 17, 6:04pm

Thu Sep 17, 5:04pm

Thu Sep 17, 4:04pm

Thu Sep 17, 3:05pm

Thu Sep 17, 2:04pm

Thu Sep 17, 1:04pm

Thu Sep 17, 12:04pm

Thu Sep 17, 10:04am

Thu Sep 17, 9:04am

Thu Sep 17, 8:04am

Thu Sep 17, 7:04am

Thu Sep 17, 6:04am

Thu Sep 17, 5:04am

Thu Sep 17, 4:04am

Thu Sep 17, 3:04am

Thu Sep 17, 2:05am

Thu Sep 17, 1:05am

Thu Sep 17, 12:04am

Wed Sep 16, 11:04pm

Wed Sep 16, 10:04pm

Wed Sep 16, 9:04pm

Wed Sep 16, 8:05pm

Wed Sep 16, 7:04pm

Wed Sep 16, 6:04pm

Wed Sep 16, 5:04pm

Wed Sep 16, 4:04pm

Wed Sep 16, 3:04pm

Wed Sep 16, 2:04pm

Wed Sep 16, 1:04pm

Wed Sep 16, 12:04pm

Wed Sep 16, 11:04am

Wed Sep 16, 10:04am

Wed Sep 16, 9:04am

Wed Sep 16, 8:04am

Wed Sep 16, 7:04am

Wed Sep 16, 6:04am

Wed Sep 16, 5:04am

Wed Sep 16, 4:04am

Wed Sep 16, 3:04am

Wed Sep 16, 2:04am

Wed Sep 16, 1:04am

Wed Sep 16, 12:05am

Tue Sep 15, 11:04pm

Tue Sep 15, 10:04pm

Tue Sep 15, 9:04pm

Tue Sep 15, 8:04pm

Tue Sep 15, 7:04pm

Tue Sep 15, 6:04pm

Tue Sep 15, 5:04pm

Tue Sep 15, 4:05pm

Tue Sep 15, 3:04pm

Tue Sep 15, 2:04pm

Tue Sep 15, 1:04pm

Tue Sep 15, 12:04pm

Tue Sep 15, 11:04am

Tue Sep 15, 10:04am

Tue Sep 15, 9:04am

Tue Sep 15, 8:04am

Tue Sep 15, 7:04am

Tue Sep 15, 6:04am

Tue Sep 15, 5:04am

Tue Sep 15, 4:04am

Tue Sep 15, 3:04am

Tue Sep 15, 2:04am

Tue Sep 15, 1:04am

Tue Sep 15, 12:05am

Mon Sep 14, 11:04pm

Mon Sep 14, 10:04pm

Mon Sep 14, 9:04pm

Mon Sep 14, 8:04pm

Mon Sep 14, 7:04pm

Mon Sep 14, 6:04pm

Mon Sep 14, 5:04pm

Mon Sep 14, 4:05pm

Mon Sep 14, 3:04pm

Mon Sep 14, 2:05pm

Mon Sep 14, 1:04pm

Mon Sep 14, 12:04pm

Mon Sep 14, 11:04am

Mon Sep 14, 10:05am

Mon Sep 14, 9:04am

Mon Sep 14, 8:04am

Mon Sep 14, 7:04am

Mon Sep 14, 6:04am

Mon Sep 14, 5:04am

Mon Sep 14, 4:04am

Mon Sep 14, 3:04am

Mon Sep 14, 2:04am

Mon Sep 14, 1:04am

Mon Sep 14, 12:04am

Meta data:

ID: bbf4d464-39fa-4d65-a400-25bceeed57e7
Link: https://api.weather.gov/products/bbf4d464-39fa-4d65-a400-25bceeed57e7